DL8BGD Weather Reports


time (UTC)temp
C
wind
direction
speed
KPH
gust
KPH
rain 1hr
cm
rain 24hr
cm
rain mn
cm
humidity
%
barometer
mb
20260902185411 17 0 0.0 0.0 0.00 0.00 0.00 69 1025.6
20260902184411 17 0 0.0 0.0 0.00 0.00 0.00 68 1025.5
20260902183411 18 0 0.0 0.0 0.00 0.00 0.00 68 1025.4
20260902182410 18 0 0.0 0.0 0.00 0.00 0.00 67 1025.4
20260902181410 18 0 0.0 0.0 0.00 0.00 0.00 66 1025.1
20260902180409 19 0 0.0 0.0 0.00 0.00 0.00 65 1025.1
20260902175409 19 0 0.0 0.0 0.00 0.00 0.00 64 1024.9
20260902174409 19 0 0.0 0.0 0.00 0.00 0.00 63 1024.8
20260902173408 20 0 0.0 0.0 0.00 0.00 0.00 62 1024.6
20260902171407 20 0 0.0 0.0 0.00 0.00 0.00 60 1024.4
20260902170406 21 0 0.0 0.0 0.00 0.00 0.00 58 1024.4
20260902165406 21 0 0.0 0.0 0.00 0.00 0.00 57 1024.4
20260902164406 21 0 0.0 0.0 0.00 0.00 0.00 55 1024.3
20260902163405 22 0 0.0 0.0 0.00 0.00 0.00 52 1024.2
20260902162405 22 0 0.0 0.0 0.00 0.00 0.00 52 1024.2
20260902161405 22 0 0.0 0.0 0.00 0.00 0.00 50 1024.2
20260902160404 22 0 0.0 0.0 0.00 0.00 0.00 50 1024.2
20260902155404 22 0 0.0 0.0 0.00 0.00 0.00 48 1024.1
20260902154404 22 0 0.0 0.0 0.00 0.00 0.00 46 1024.2
20260902153403 23 0 0.0 0.0 0.00 0.00 0.00 47 1024.0
20260902152403 23 0 0.0 0.0 0.00 0.00 0.00 45 1024.0
20260902151402 23 0 0.0 0.0 0.00 0.00 0.00 45 1024.0
20260902150402 23 0 0.0 0.0 0.00 0.00 0.00 45 1024.1
20260902145402 23 0 0.0 0.0 0.00 0.00 0.00 45 1024.2
20260902144403 23 0 0.0 0.0 0.00 0.00 0.00 45 1024.2
20260902143400 23 0 0.0 0.0 0.00 0.00 0.00 43 1024.3
20260902142400 23 0 0.0 0.0 0.00 0.00 0.00 43 1024.4
20260902141359 23 0 0.0 0.0 0.00 0.00 0.00 42 1024.4
20260902140359 23 0 0.0 0.0 0.00 0.00 0.00 44 1024.3
20260902135359 23 0 0.0 0.0 0.00 0.00 0.00 45 1024.3
20260902134358 23 0 0.0 0.0 0.00 0.00 0.00 44 1024.4
20260902133358 23 0 0.0 0.0 0.00 0.00 0.00 43 1024.4
20260902132357 22 0 0.0 0.0 0.00 0.00 0.00 44 1024.5
20260902131357 23 0 0.0 0.0 0.00 0.00 0.00 43 1024.6
20260902130357 23 0 0.0 0.0 0.00 0.00 0.00 43 1024.6
20260902125356 23 0 0.0 0.0 0.00 0.00 0.00 42 1024.6
20260902124356 23 0 0.0 0.0 0.00 0.00 0.00 42 1024.6
20260902123356 24 0 0.0 0.0 0.00 0.00 0.00 41 1024.6
20260902122356 25 0 0.0 0.0 0.00 0.00 0.00 40 1024.6
20260902121354 24 0 0.0 0.0 0.00 0.00 0.00 41 1024.7
20260902120354 24 0 0.0 0.0 0.00 0.00 0.00 41 1024.8